Location: Cercedilla
(40.7379°N, 4.0638°W)
Time: 21:41:40
(UTC+00:00)

NOSS 2-1 (E) - Pass Details

Date: 07 June 2020
Orbit: 446 x 1757 km, 63.3° (Epoch: 25 June)

Event Time Altitude Azimuth Distance (km) Brightness Sun altitude
Exits shadow 02:05:20 76° 6° (N) 466 2.9 -21.5°
Drops below altitude 10° 02:08:37 10° 33° (NNE) 1,640 6.9 -21.2°
Sets 02:10:52 0° 34° (NE) 2,607 8.3 -21.0°
